GFSSW_850_thetae_150.txt.gz
Theta_e
303 304 308 306 309 309 310 311 316 315 318 317 317 324 328 329 331 328 318 326 326 323 325 324 313 314 314 315 316 317 322 324 320 321 323 321 325 320 323 328 329 329 327 328 325
302 303 305 306 308 310 311 314 315 315 318 318 316 322 325 328 329 325 325 325 327 326 322 322 314 314 316 316 316 320 325 324 319 320 323 322 325 321 326 328 329 329 325 326 326
302 303 305 308 311 310 310 312 314 315 316 318 316 322 324 326 321 319 326 324 322 328 326 323 314 315 317 316 316 317 325 320 317 317 317 322 319 321 326 328 327 328 325 325 327
301 302 305 307 309 310 309 310 313 314 316 319 316 321 323 323 325 323 324 320 322 325 327 329 319 318 321 318 315 319 316 316 315 315 315 320 322 321 325 326 325 326 324 323 326
303 302 305 307 309 311 310 312 313 314 317 319 316 319 323 321 322 322 322 319 322 325 326 328 323 319 322 323 318 316 316 314 313 314 315 315 319 324 322 321 320 324 324 323 326
305 304 305 308 309 310 310 310 315 314 315 316 317 319 321 320 320 322 320 320 323 323 326 327 328 326 324 322 319 316 314 313 312 314 313 316 315 316 321 320 319 323 324 323 323
305 304 306 307 309 309 308 309 312 314 314 314 317 320 321 321 321 321 322 320 321 323 327 328 331 331 326 322 324 317 318 313 314 313 314 314 315 316 317 319 321 322 325 325 326
306 306 304 304 307 307 308 308 311 310 314 314 318 320 322 321 322 321 322 322 320 318 321 328 329 329 326 324 319 318 320 322 319 314 313 314 319 319 316 320 323 326 328 326 324
303 302 299 304 303 302 302 306 309 309 312 313 316 320 320 318 321 320 322 322 320 316 317 318 322 320 322 324 323 318 326 327 322 313 314 316 319 318 316 321 322 325 327 329 328
303 302 301 297 298 301 301 303 309 309 313 313 315 321 314 318 320 321 321 321 319 314 311 314 318 312 318 329 334 326 318 317 330 316 313 316 317 314 314 320 320 324 325 327 328
303 303 302 298 297 299 303 306 308 308 310 316 316 320 317 317 319 319 320 318 313 311 313 311 313 317 316 326 329 325 328 329 320 312 315 316 317 318 313 316 319 321 324 326 326
303 304 302 297 301 304 304 308 307 310 312 313 317 319 316 318 313 315 318 313 312 313 309 308 313 316 317 318 316 322 329 327 311 311 314 316 316 317 314 313 316 318 321 323 325
303 304 302 298 302 304 304 303 306 308 307 315 316 316 316 318 313 313 315 311 310 312 309 311 313 310 311 315 316 319 326 317 319 311 311 312 316 316 315 313 312 313 317 319 322
304 304 302 300 303 304 304 304 305 308 308 312 315 312 314 317 315 316 315 312 309 308 308 309 308 309 309 314 316 317 314 315 313 317 322 311 326 321 318 314 312 313 313 314 316
304 304 302 300 303 304 304 305 305 304 313 312 313 313 313 316 312 313 315 314 310 308 308 311 308 309 311 311 311 315 312 314 312 317 314 312 319 322 314 316 315 313 314 314 315
304 304 302 302 303 303 303 303 305 306 315 314 312 312 313 312 314 311 311 311 310 308 308 309 307 308 310 307 310 307 309 309 309 312 318 317 316 320 317 316 318 314 314 315 317
304 304 302 302 303 304 306 304 306 311 309 310 312 313 314 312 312 314 310 311 313 312 313 309 308 307 306 309 307 310 314 314 317 316 319 307 310 318 316 312 312 315 313 313 315
304 303 301 302 303 303 303 304 306 311 311 306 313 313 314 312 313 314 311 314 312 314 313 317 313 308 308 312 310 312 316 316 319 316 316 305 313 315 311 311 310 310 310 310 312
303 302 301 301 303 304 302 303 305 311 310 310 313 315 315 313 312 314 313 314 312 313 319 317 315 307 306 306 310 311 313 312 310 304 312 313 311 310 311 310 309 308 307 309 310
303 301 301 301 302 302 303 303 303 305 305 312 315 316 314 313 312 312 314 313 311 311 309 313 310 307 306 307 307 311 310 313 312 315 314 311 310 314 312 313 311 309 309 309 310
301 301 300 300 301 302 304 303 306 307 306 312 314 312 314 314 312 313 312 312 312 310 307 313 314 308 308 310 311 309 311 310 313 312 316 314 314 311 311 310 310 309 307 307 308
300 302 300 300 303 303 303 303 304 306 307 305 312 314 315 314 313 313 313 313 311 310 311 311 310 311 310 307 305 307 310 311 316 311 309 309 314 306 308 307 306 308 307 308 308
300 300 302 300 303 303 302 303 304 307 307 304 310 312 314 314 313 314 313 310 310 311 309 309 310 312 310 308 307 309 309 311 309 310 314 317 315 307 305 307 307 307 307 307 308
299 301 301 302 302 303 302 302 303 303 305 304 306 313 314 314 312 313 312 310 310 310 308 309 309 313 314 315 311 310 309 309 311 317 313 313 313 310 309 308 308 308 309 309 308
299 301 301 302 303 303 304 304 303 303 307 306 307 314 314 315 313 314 311 311 310 309 309 311 313 310 307 308 310 310 308 308 309 311 312 313 311 312 312 310 308 308 309 310 310
298 299 300 302 301 303 304 304 307 307 307 308 309 314 315 315 315 314 312 312 311 310 309 307 314 309 308 308 308 309 309 308 310 310 311 311 311 310 310 309 309 309 310 310 310
298 298 301 302 302 302 303 306 306 307 307 308 308 313 314 314 313 312 313 312 311 312 310 310 311 314 316 309 311 314 309 310 310 310 311 311 311 307 307 307 308 310 311 309 309

GFSSW_850_thetae_156.txt.gz
Theta_e
301 301 301 302 304 307 305 304 305 307 309 315 318 318 316 315 325 329 330 326 328 325 325 328 331 331 331 314 316 319 325 328 329 325 326 324 326 329 328 330 330 330 330 331 330
302 301 301 301 307 311 303 305 306 307 308 310 315 317 317 316 323 327 328 328 327 326 323 327 329 331 331 316 316 319 326 328 328 326 322 324 327 326 328 330 330 330 332 332 327
304 302 301 301 302 308 309 303 305 307 308 309 313 316 319 317 320 323 326 328 324 326 323 326 328 327 325 322 317 320 321 329 329 327 321 324 325 326 327 328 330 331 333 332 328
304 303 301 301 301 301 303 305 304 307 309 311 314 316 319 318 321 321 321 326 327 323 322 326 326 327 322 320 322 319 321 325 328 322 319 323 325 326 327 329 329 329 328 329 328
306 305 303 301 301 301 303 309 309 309 309 310 313 315 318 319 319 323 323 325 327 321 321 324 325 321 322 319 320 320 319 322 324 319 318 322 325 325 326 326 328 328 329 327 324
306 305 303 302 301 302 304 306 309 310 309 311 313 315 318 319 318 319 323 324 322 322 321 322 324 325 321 323 321 320 320 318 320 317 317 318 321 324 325 326 325 328 329 327 323
306 304 305 302 301 302 304 306 308 310 310 311 314 314 317 318 318 317 319 323 323 322 324 323 325 325 322 323 322 322 323 320 317 317 317 317 318 319 324 326 326 328 329 328 324
306 305 305 302 303 302 305 308 309 310 309 311 314 314 315 318 317 319 321 320 321 325 326 326 325 325 324 323 322 324 322 324 318 317 317 317 317 317 320 324 325 328 330 331 330
307 306 305 303 303 304 305 309 309 309 308 310 312 314 314 314 316 318 319 320 320 323 325 326 327 325 324 326 326 325 329 326 323 317 316 315 318 318 319 323 324 327 328 330 331
308 307 305 304 301 305 305 307 307 307 308 310 311 313 313 314 316 317 319 319 320 321 322 324 319 323 325 327 330 329 329 327 327 317 316 315 316 320 319 320 322 324 326 329 329
308 307 306 305 302 305 305 305 305 308 310 310 311 311 313 314 315 318 318 320 318 317 318 316 321 325 327 326 327 327 327 329 327 324 318 318 317 319 318 319 320 322 324 326 329
308 307 306 305 304 305 305 306 305 309 309 305 308 312 311 313 315 313 318 318 316 319 314 316 322 321 324 324 324 327 331 328 325 319 319 320 320 320 320 316 319 321 322 325 326
308 307 306 305 304 306 302 305 307 307 307 307 310 309 312 312 314 314 317 319 317 315 317 321 319 319 321 324 327 327 329 332 331 317 315 315 319 322 323 322 318 320 321 323 325
308 307 306 305 305 304 304 303 307 305 307 305 307 309 310 312 312 313 317 318 313 317 317 318 314 318 320 320 325 329 326 329 327 322 328 317 333 328 324 323 315 317 320 321 323
308 307 306 304 304 305 305 305 305 302 305 305 310 312 311 312 313 316 315 316 311 310 312 314 313 314 318 320 321 327 317 322 325 327 326 324 319 324 325 324 322 317 317 318 321
308 307 306 305 304 303 306 305 304 308 303 311 313 313 313 313 313 314 315 312 310 310 308 309 307 311 314 315 316 316 317 322 319 324 327 326 322 323 325 325 324 321 317 317 318
308 306 304 304 305 305 306 304 305 305 307 308 312 312 314 315 315 314 309 308 312 313 314 308 308 308 309 313 310 314 317 320 323 323 327 324 319 322 321 320 321 320 318 318 316
307 305 304 304 305 305 305 305 303 301 308 309 311 311 315 315 315 313 311 311 314 315 314 316 314 309 310 314 315 311 315 323 328 325 319 309 321 320 318 318 317 316 316 316 317
306 306 305 304 305 304 305 304 301 305 302 310 309 310 312 315 311 310 312 313 314 314 318 317 315 309 310 310 313 313 315 316 317 308 315 313 313 314 312 311 311 312 313 314 315
306 305 304 305 305 305 304 303 304 306 305 305 307 310 312 312 313 310 313 316 316 314 314 315 313 311 308 309 309 311 313 317 316 315 317 315 316 316 314 312 310 310 312 313 313
305 305 305 304 304 304 304 303 304 307 306 307 307 308 312 313 313 313 314 316 316 315 315 314 312 309 309 311 313 313 313 313 316 315 320 313 312 312 313 311 309 308 311 311 311
302 303 304 304 304 303 304 304 303 303 303 306 307 307 307 307 310 312 316 317 316 315 317 316 311 311 312 309 310 311 313 314 317 315 309 313 314 309 308 307 308 309 309 309 309
302 304 304 304 305 304 304 303 303 304 304 306 304 306 306 308 310 311 314 315 315 315 317 315 315 313 313 312 308 311 311 312 313 311 310 314 315 308 306 307 309 310 309 309 309
302 304 304 303 303 303 303 303 303 303 305 305 305 307 307 307 307 310 309 314 315 315 315 313 314 316 317 315 311 313 312 312 313 313 314 313 312 308 308 307 307 308 308 309 310
302 302 302 303 303 303 303 304 303 303 303 305 305 306 307 307 308 308 311 312 315 314 311 313 314 313 308 313 314 313 314 314 314 313 314 314 313 309 307 307 308 309 309 309 310
300 301 301 302 303 304 304 303 303 303 304 305 306 306 306 307 307 310 306 313 315 311 313 314 313 309 309 310 314 314 315 315 313 314 315 314 313 312 309 310 309 310 309 310 310
300 301 302 302 302 303 303 303 303 303 303 303 304 304 306 307 306 306 306 305 306 313 312 314 311 313 314 312 314 316 314 314 314 312 313 314 313 309 309 308 309 311 311 311 311

GFSSW_850_thetae_159.txt.gz
Theta_e
302 301 302 303 302 302 303 304 304 304 306 307 312 316 317 317 314 323 324 327 327 327 325 326 331 331 328 332 317 317 320 325 326 326 326 324 324 327 330 330 330 330 333 332 333
303 301 301 303 303 309 305 304 304 304 304 306 309 314 316 317 316 325 321 324 327 327 327 325 329 330 329 329 320 317 319 324 325 324 322 324 324 327 329 329 330 330 330 331 331
308 303 301 301 302 311 312 312 304 304 305 306 308 310 313 317 320 317 316 322 326 326 326 324 327 329 327 326 324 318 318 321 326 327 324 321 324 327 327 326 329 330 330 332 331
309 305 303 301 301 302 310 312 310 304 305 306 308 310 313 318 317 322 318 318 327 323 322 321 323 329 324 326 322 322 321 319 322 323 322 321 324 325 327 328 329 329 329 330 329
309 308 304 302 301 301 301 304 307 307 306 307 308 311 314 317 316 322 322 323 327 323 324 323 325 327 326 324 323 322 322 321 320 320 321 318 322 325 325 327 327 329 329 328 326
309 308 307 303 302 301 301 302 306 309 307 308 308 311 313 316 316 315 318 323 326 320 320 322 324 326 323 322 325 324 323 322 321 320 318 316 318 322 325 326 325 329 329 328 325
309 309 307 306 303 301 301 302 305 309 307 308 309 312 314 314 316 318 317 319 324 319 319 321 323 326 323 321 321 322 325 323 324 322 318 316 315 317 324 324 327 330 329 329 327
309 309 308 305 305 302 301 303 304 306 307 309 310 313 313 313 314 317 318 320 322 322 321 320 321 324 323 322 322 323 323 326 324 323 317 315 319 315 320 323 329 330 329 329 327
308 309 308 306 306 303 301 303 305 308 309 309 312 313 313 313 314 316 317 320 320 321 322 323 323 324 322 324 323 325 326 326 324 323 323 315 315 316 319 321 325 330 329 328 327
308 309 309 307 306 304 302 304 308 309 308 309 310 311 312 313 313 314 317 319 319 320 322 324 324 324 325 326 329 324 326 326 327 325 325 321 316 315 317 317 320 327 329 329 328
310 308 309 306 306 304 304 307 308 308 309 309 309 310 313 313 314 315 317 318 318 318 321 318 323 325 326 325 325 324 326 327 326 325 327 326 316 316 316 315 321 322 327 329 328
311 308 309 307 306 304 305 306 306 306 307 308 310 309 311 313 314 315 316 317 317 318 318 317 322 321 320 325 326 326 326 327 326 326 324 322 320 316 315 315 318 321 323 327 328
312 309 308 307 306 304 305 305 304 307 306 307 305 309 311 311 314 314 315 316 317 317 318 319 320 319 323 324 327 327 327 329 329 320 325 318 320 318 316 318 318 319 320 323 326
310 310 308 308 307 305 305 305 306 306 296 303 308 309 308 310 312 313 314 315 316 318 317 318 317 320 322 325 325 327 324 325 326 326 331 323 334 327 322 319 316 316 318 320 323
312 310 308 307 307 306 305 305 306 302 291 300 307 307 309 310 310 313 313 315 316 313 316 317 317 320 321 322 322 325 324 326 326 329 328 322 328 329 325 326 322 317 316 319 321
306 311 308 307 306 306 304 303 304 295 293 308 311 311 310 310 312 313 314 315 312 312 309 311 309 314 317 314 318 319 321 318 318 325 327 328 326 325 326 327 324 320 317 319 319
305 310 307 307 306 305 303 305 301 292 298 309 310 311 310 311 310 312 313 313 312 312 312 307 310 309 310 314 313 319 321 322 323 322 327 323 326 328 321 319 324 322 316 317 318
310 309 307 306 305 303 305 300 291 294 301 308 310 311 313 312 312 312 311 312 311 314 314 315 313 310 310 316 317 319 321 322 326 324 322 316 328 327 320 324 317 324 322 319 317
302 310 307 305 304 304 304 302 296 296 306 309 309 309 312 313 313 314 313 311 310 312 318 317 316 309 310 310 314 314 318 316 318 311 314 314 311 312 312 311 312 312 319 319 317
302 308 304 304 303 304 303 300 301 304 306 307 303 305 305 311 313 311 313 312 313 312 314 315 315 311 309 310 310 314 314 318 316 321 322 316 312 319 314 313 309 309 310 314 316
301 302 303 304 305 304 304 302 302 306 305 303 303 307 310 310 311 311 313 312 312 312 314 314 313 310 310 312 314 312 315 316 316 318 321 314 313 309 314 314 310 308 311 313 313
300 303 304 305 305 304 303 301 304 305 304 304 304 304 304 308 310 311 314 313 313 314 316 315 311 310 312 309 310 311 314 314 321 319 312 311 312 307 307 309 309 308 310 312 313
300 305 304 305 306 304 302 303 302 302 303 302 304 305 305 306 305 308 310 311 313 315 316 313 311 312 313 312 309 312 313 317 315 312 312 313 313 306 305 307 308 308 309 310 310
300 305 306 305 303 303 303 303 302 303 304 302 302 304 305 306 306 306 309 307 310 311 314 314 312 314 313 313 312 314 313 314 317 316 314 311 313 307 306 306 307 308 309 309 309
300 303 301 304 303 303 302 303 302 302 303 303 303 304 304 303 306 306 307 308 309 310 310 315 314 314 310 311 312 313 313 313 317 315 316 313 311 311 305 305 306 308 308 308 309
300 302 302 301 302 302 302 302 302 302 303 304 302 304 304 303 304 304 308 309 310 312 314 314 313 314 313 312 313 313 313 313 315 315 313 313 313 311 309 308 307 308 308 308 309
301 303 304 303 302 302 301 302 302 301 302 304 303 303 303 304 303 304 306 306 306 307 306 311 310 312 317 311 313 315 313 313 314 315 314 315 313 312 308 306 307 308 309 309 310

GFSSW_850_thetae_162.txt.gz
Theta_e
308 303 301 301 311 311 307 310 310 305 305 305 305 308 315 318 316 318 322 319 321 325 326 325 325 331 331 329 329 326 317 323 325 326 325 325 322 326 327 330 329 332 332 330 332
310 306 302 301 305 312 312 312 313 307 304 304 304 305 311 316 317 317 317 321 323 324 326 326 327 331 331 329 328 318 319 322 323 324 323 321 321 324 329 329 331 331 332 332 332
309 310 305 302 302 308 310 311 312 310 304 304 303 305 309 313 315 314 314 317 322 324 327 328 325 329 329 326 324 318 321 319 319 321 321 322 320 323 327 326 329 329 331 332 332
308 309 310 303 302 303 309 311 312 309 304 305 305 306 307 312 305 320 319 315 320 326 325 323 325 329 325 325 324 325 324 325 323 323 321 321 321 323 327 329 330 329 329 330 331
310 307 309 306 303 302 307 311 312 311 306 305 306 307 308 314 311 322 320 318 322 325 325 323 324 327 325 324 323 324 324 325 325 325 325 322 321 316 323 326 328 329 330 330 330
310 308 309 308 304 302 307 304 309 310 308 306 307 309 311 313 309 311 319 319 323 321 320 320 323 324 326 324 323 324 324 324 324 325 324 322 320 317 319 324 325 328 329 330 329
309 309 308 308 306 303 301 302 303 304 307 307 307 309 312 310 310 311 310 316 322 321 319 321 322 325 325 321 323 324 325 323 323 324 323 321 324 315 317 320 325 326 329 329 328
309 309 308 309 307 304 302 301 302 305 310 308 308 311 311 310 310 316 316 316 321 322 319 319 321 324 323 322 322 323 323 326 323 323 322 322 326 319 318 317 325 326 329 330 329
311 309 309 309 308 306 303 301 302 305 308 308 311 310 311 311 310 308 316 318 321 322 319 320 320 323 322 324 325 324 328 325 324 323 319 320 323 321 318 317 322 327 328 329 330
312 310 309 309 308 306 304 302 304 307 308 310 311 311 310 312 311 310 310 313 319 320 321 321 321 323 323 324 327 327 328 323 326 323 323 320 321 320 321 318 319 327 328 329 330
313 311 309 310 308 306 305 305 309 308 309 308 309 310 313 312 312 313 316 317 317 317 320 320 321 324 324 323 324 324 324 326 324 324 325 325 324 324 323 317 313 316 327 329 329
314 313 310 309 309 306 304 306 306 306 307 308 309 311 312 312 313 315 313 316 316 316 316 318 321 318 321 322 322 322 325 326 324 324 326 326 325 325 324 321 315 314 318 326 327
314 313 311 308 309 307 304 304 306 306 305 307 308 310 312 311 312 313 316 315 316 317 316 316 318 317 320 321 322 325 325 325 327 322 325 324 325 324 320 321 322 317 316 320 323
311 313 312 308 309 306 305 304 306 306 295 302 307 307 310 310 310 312 313 314 314 316 316 318 316 316 319 321 321 324 324 325 325 326 329 325 330 327 325 321 319 318 316 318 322
310 310 309 309 309 307 305 305 305 304 293 299 307 306 307 308 306 311 313 315 314 315 315 316 316 316 318 321 319 322 321 322 325 327 327 326 329 326 325 325 322 318 316 317 318
307 309 312 310 308 306 304 305 304 293 292 302 309 308 309 308 310 311 313 314 313 314 312 312 310 313 316 317 319 319 320 319 320 325 329 327 328 327 326 326 325 323 320 319 318
307 308 311 309 308 306 305 305 301 293 297 308 307 309 307 308 310 311 313 312 312 314 313 308 310 308 311 318 315 321 323 324 325 323 328 323 326 326 323 322 323 324 325 321 321
306 306 306 307 308 305 305 302 297 293 297 305 307 307 307 307 307 310 310 312 311 312 313 314 315 310 311 317 319 320 322 324 325 323 321 316 327 325 321 322 322 322 323 325 320
303 303 304 308 307 305 305 303 300 298 302 308 309 307 308 309 308 307 308 310 311 310 314 316 316 309 310 311 316 319 322 319 318 308 316 313 313 311 315 314 319 320 320 320 321
303 303 303 306 306 304 304 302 299 299 305 307 305 308 308 310 311 309 309 309 309 311 312 314 315 310 311 311 310 314 315 320 318 322 324 319 315 320 316 315 312 311 313 316 322
303 301 303 305 304 303 304 301 301 303 306 304 303 303 304 310 311 312 313 311 309 309 310 313 313 310 310 311 313 314 315 318 317 318 322 319 317 309 316 315 314 313 314 316 320
299 302 302 305 303 302 303 300 305 304 304 303 302 304 306 308 310 310 312 310 310 310 311 312 314 310 312 310 310 316 316 317 322 320 315 311 316 306 306 305 306 310 312 314 314
300 300 301 304 305 304 303 302 304 303 303 302 304 304 305 308 308 309 310 310 310 311 313 313 313 314 313 311 309 311 313 316 316 313 319 317 319 306 305 305 307 308 311 312 313
300 302 303 303 304 303 303 302 302 302 302 300 302 303 304 305 305 307 308 307 309 311 312 313 314 314 313 311 311 314 315 314 317 319 320 318 318 311 306 307 306 308 309 309 310
299 301 301 303 303 303 302 302 303 303 302 302 302 303 302 302 305 305 306 305 306 309 310 311 311 312 312 310 311 313 314 315 316 317 319 319 317 316 307 305 306 309 308 307 308
299 300 300 301 302 303 303 302 303 302 302 302 302 303 301 301 301 304 304 305 306 307 311 308 310 309 312 314 311 312 313 314 314 316 318 316 312 312 312 307 306 308 308 308 309
299 300 303 303 303 303 303 302 302 301 302 302 302 303 303 302 303 303 306 306 306 305 306 306 309 311 315 311 312 313 312 313 313 314 316 317 315 309 307 303 304 307 307 309 310

GFSSW_850_thetae_165.txt.gz
Theta_e
311 310 306 302 302 311 303 302 303 304 303 304 305 307 312 317 318 316 320 314 317 323 324 325 325 325 330 331 329 320 317 321 323 325 324 322 318 323 326 328 331 332 331 329 329
312 310 309 304 302 311 311 304 309 310 304 304 304 305 306 310 316 317 318 317 320 320 326 326 325 326 330 330 328 324 320 320 319 320 320 320 321 320 327 329 330 331 331 330 328
311 311 309 307 302 307 312 312 310 312 306 304 303 304 306 310 312 309 312 317 317 321 322 324 326 330 329 327 325 319 321 318 319 320 322 322 324 325 323 326 329 330 331 330 329
310 310 310 309 304 304 309 309 311 313 311 304 304 304 307 310 303 314 311 309 317 323 324 326 325 328 325 325 324 324 324 320 323 324 325 324 324 325 320 321 325 328 330 330 330
310 310 310 309 308 303 307 309 310 312 311 304 305 306 310 313 305 320 319 314 318 323 323 324 324 327 325 323 323 323 324 324 325 325 325 325 324 323 323 328 320 322 330 331 330
310 309 311 308 309 305 303 307 310 313 312 305 305 307 310 311 305 317 319 319 317 322 322 322 324 326 326 323 322 324 324 324 324 324 324 324 324 323 325 326 324 321 328 330 330
312 310 310 309 309 307 303 305 309 311 311 307 306 308 312 308 309 306 315 317 319 320 321 320 322 322 324 321 324 324 325 322 323 323 323 323 323 323 324 324 320 318 326 330 329
313 311 309 310 308 308 304 303 306 307 308 307 307 308 310 307 307 314 308 313 321 321 319 319 319 322 323 322 322 324 324 327 324 324 323 323 325 322 325 322 319 319 324 329 330
315 312 310 310 308 308 305 303 303 303 306 307 308 311 309 308 307 313 316 311 317 322 319 320 320 321 321 323 324 324 326 326 325 324 320 322 323 321 322 322 322 321 319 325 328
316 314 311 309 308 308 306 303 302 305 309 309 309 310 309 310 306 306 317 317 319 322 320 319 320 319 320 322 321 320 325 323 325 323 321 319 319 320 321 320 318 320 318 322 326
314 314 312 310 309 308 306 305 308 309 309 308 309 308 311 310 311 310 309 312 317 318 319 319 320 320 320 320 319 318 321 321 321 322 323 323 322 321 321 321 321 322 320 319 321
311 315 313 311 309 309 306 306 306 305 307 308 308 308 311 311 312 312 313 313 315 317 317 318 319 318 319 319 321 322 322 322 322 322 323 322 323 322 322 321 322 323 322 318 320
310 314 314 312 309 309 307 305 305 305 305 307 308 308 312 312 312 312 316 315 313 312 316 317 316 315 318 320 322 323 324 324 325 324 324 324 325 324 322 322 323 323 323 320 318
309 310 314 313 309 310 307 305 305 305 297 303 307 308 310 311 309 312 313 314 314 316 314 313 313 314 317 318 318 323 321 322 324 324 329 325 328 323 324 323 321 322 323 322 319
310 310 314 314 311 310 307 305 305 303 300 301 306 306 309 309 308 312 314 314 314 313 315 314 315 314 315 315 318 319 320 321 322 323 324 326 329 325 322 323 322 321 321 322 324
307 310 313 313 311 309 308 304 305 301 300 299 306 308 309 308 308 312 313 313 313 313 312 311 310 312 314 314 314 317 320 321 322 322 321 321 326 325 323 322 322 321 322 323 323
306 309 311 312 311 309 307 305 301 302 298 304 306 307 307 308 309 308 311 313 315 314 313 310 311 309 312 316 316 318 319 321 323 323 326 320 324 324 320 319 320 322 323 323 323
305 304 309 312 310 308 305 305 303 297 298 304 305 306 306 306 307 308 308 309 310 310 310 312 312 311 309 313 316 319 319 322 325 324 322 318 326 324 320 321 321 323 323 324 324
304 305 305 310 307 306 303 305 301 300 299 306 306 306 306 306 305 309 308 307 307 309 310 310 311 309 310 312 314 317 319 317 321 311 318 318 314 313 314 317 319 320 321 321 322
302 305 306 307 305 305 303 304 301 299 305 305 302 306 305 306 305 307 309 306 307 308 308 312 313 310 311 311 311 316 315 318 319 321 323 318 316 319 317 316 317 315 317 320 321
303 303 305 307 305 304 305 305 298 300 306 304 304 305 305 306 306 307 306 307 307 308 308 309 313 308 311 313 317 315 318 318 319 320 319 318 317 312 316 317 315 314 316 316 316
300 302 302 304 304 303 305 302 300 303 304 302 302 301 305 305 308 306 306 305 308 308 309 309 312 313 312 310 309 314 316 317 321 320 317 312 318 310 305 307 306 307 310 312 314
300 300 302 303 305 304 303 302 302 305 303 302 304 304 305 307 308 308 308 309 309 307 308 310 312 312 311 311 309 312 315 316 317 314 319 321 320 309 304 302 305 306 309 311 314
300 301 303 303 303 304 304 303 304 304 301 301 302 304 305 307 304 308 308 307 309 309 310 309 312 309 310 309 309 313 314 315 316 319 319 319 319 316 314 308 306 308 311 309 311
300 301 301 303 302 304 303 302 304 304 301 302 302 305 305 306 305 306 307 306 305 309 311 312 311 309 312 312 308 311 310 313 316 317 318 317 317 316 316 316 314 309 309 309 309
298 299 300 301 301 303 304 303 304 301 301 302 304 304 301 306 303 304 306 304 304 307 308 309 310 307 306 307 307 309 310 310 314 315 316 316 317 315 311 313 314 313 309 308 309
299 299 301 303 302 303 304 303 303 302 301 301 302 303 301 301 302 304 304 303 304 305 306 308 308 308 308 308 311 312 311 311 312 313 314 315 315 314 312 308 309 311 313 309 310

GFSSW_850_thetae_168.txt.gz
Theta_e
310 311 310 306 302 301 310 306 302 304 308 305 306 308 312 316 318 318 316 315 313 318 322 323 326 326 327 330 325 318 317 321 322 322 322 321 321 323 323 326 330 331 330 328 329
311 309 311 309 306 302 309 311 304 308 311 304 305 305 306 310 315 317 318 318 315 314 324 324 325 325 328 330 329 326 321 320 319 320 321 321 323 324 322 323 330 330 331 330 329
310 310 312 311 309 304 307 311 309 311 311 305 305 305 305 306 309 306 310 317 317 316 320 324 326 329 328 328 326 320 323 319 318 320 321 322 322 325 324 323 327 325 322 330 330
311 310 310 312 309 307 304 309 311 310 312 308 304 304 306 309 303 306 304 306 317 318 320 321 324 328 325 324 325 324 322 321 320 319 322 324 324 324 325 326 324 324 320 322 330
313 311 310 310 310 309 303 308 310 311 312 311 304 304 308 312 305 316 316 308 314 320 321 323 324 325 323 323 323 322 323 324 323 324 323 324 324 323 323 326 325 326 328 323 329
314 312 310 310 310 309 306 306 309 309 311 311 305 307 310 310 305 316 319 316 312 319 322 322 323 325 324 323 322 323 324 324 324 324 325 323 323 323 324 325 325 324 326 326 324
314 314 311 310 310 309 309 305 307 309 312 312 305 307 311 307 306 304 318 315 315 317 321 320 321 324 323 322 324 323 324 321 322 322 322 323 322 320 322 322 323 324 326 326 320
314 314 313 310 310 309 309 305 305 310 313 311 305 309 310 308 308 309 308 312 319 320 321 320 319 322 323 322 322 324 324 324 322 322 323 323 324 319 322 322 323 323 325 326 324
313 314 314 312 310 310 308 305 304 309 311 310 308 308 308 306 305 306 312 311 320 320 320 319 319 320 321 323 323 323 323 323 322 322 322 320 322 320 321 322 321 323 324 324 325
311 313 315 313 310 310 308 305 304 306 309 308 309 309 308 309 304 308 315 313 319 321 319 319 319 317 319 319 321 318 321 320 321 322 320 320 321 319 322 321 320 321 322 323 324
310 311 314 315 311 310 308 306 307 307 307 309 309 307 310 308 308 307 316 318 318 319 319 319 319 318 319 317 317 316 316 317 317 318 322 322 322 321 320 320 319 321 319 320 320
309 310 312 315 313 310 309 306 305 305 308 309 308 308 310 309 311 309 313 315 315 316 315 317 319 315 315 315 319 318 319 319 317 318 320 321 322 321 320 320 320 320 320 321 323
308 309 311 316 313 311 309 307 305 305 306 307 308 308 310 311 311 313 312 312 312 313 316 313 313 315 317 319 319 320 323 321 321 320 320 322 324 322 320 321 321 320 320 320 321
308 308 309 314 314 311 309 307 305 305 302 304 307 307 309 311 311 311 312 312 312 313 312 313 313 313 314 317 318 322 320 322 322 323 324 322 327 323 321 321 321 321 321 321 321
306 307 307 309 314 311 309 307 305 304 305 302 306 307 308 309 309 312 313 313 312 311 311 310 312 312 313 314 315 318 317 319 321 322 321 321 322 321 320 322 321 320 321 322 322
305 306 306 309 313 309 309 306 305 303 305 304 306 308 309 308 308 312 312 313 312 312 312 311 310 311 311 311 312 315 318 317 318 319 320 320 321 320 320 320 320 320 321 322 323
303 305 307 309 311 310 308 305 306 305 299 304 306 307 307 308 307 310 312 313 311 312 313 309 309 309 311 315 314 314 317 316 318 320 317 317 320 320 317 319 320 320 320 321 321
304 304 305 309 308 310 307 304 307 302 298 303 304 307 307 307 306 308 311 310 309 308 307 310 305 309 308 313 314 315 317 317 313 314 315 317 322 319 317 318 319 319 321 321 321
302 303 304 306 309 307 306 308 306 303 300 305 306 306 306 306 305 305 308 309 308 309 306 305 307 308 309 310 311 312 316 314 317 314 319 317 315 315 314 316 317 318 319 320 321
301 302 303 305 306 307 307 308 304 302 304 304 302 304 304 306 305 305 304 305 305 308 306 308 308 308 309 311 311 311 312 314 316 319 318 315 315 317 315 316 314 315 317 320 321
301 301 304 305 306 303 309 308 302 302 304 302 302 301 301 306 304 305 304 304 304 306 307 308 307 308 311 312 312 315 314 317 316 317 316 315 312 310 314 315 315 314 316 315 314
302 301 302 305 300 304 307 304 302 302 304 302 301 301 302 304 304 305 305 304 305 306 308 306 307 304 309 309 310 311 313 313 318 319 318 317 317 311 307 307 306 306 310 310 309
299 300 304 304 305 306 306 304 302 304 304 303 303 304 302 304 304 304 304 304 306 306 306 307 304 300 307 308 308 312 314 315 315 316 318 319 317 310 310 311 313 305 310 313 312
301 301 300 304 301 304 305 303 303 304 301 301 302 303 303 304 304 304 304 307 307 307 308 308 309 305 304 307 307 310 312 314 315 316 316 316 317 315 315 314 314 315 315 315 312
300 301 301 302 302 304 304 303 304 304 302 303 304 305 305 305 306 305 305 305 307 307 309 308 308 306 308 308 310 310 309 310 313 313 316 315 315 315 314 314 314 314 314 315 315
299 300 300 301 301 303 304 304 304 303 303 305 305 305 304 305 305 306 306 305 308 307 310 310 311 309 307 307 307 307 306 308 310 311 313 313 313 312 312 313 312 313 312 312 313
299 301 301 302 302 304 304 303 304 303 301 303 304 303 304 303 304 305 305 304 303 308 309 310 309 304 301 301 305 309 307 307 306 308 310 311 311 311 311 311 313 313 313 313 313

GFSSW_850_thetae_171.txt.gz
Theta_e
311 310 309 309 307 303 302 310 309 309 303 305 307 307 309 314 318 318 317 316 312 313 315 317 321 325 326 328 326 319 320 322 322 321 321 322 322 321 323 325 328 331 330 329 329
311 311 310 310 310 307 302 308 311 311 303 307 304 305 305 309 315 316 317 318 316 313 315 317 323 325 327 329 328 323 320 321 319 319 321 321 322 324 323 322 328 329 328 328 330
313 312 310 310 310 309 306 304 311 311 310 310 305 305 305 306 309 308 310 316 318 316 319 321 323 325 327 327 326 323 326 321 320 321 320 321 322 324 323 323 324 328 326 323 324
314 313 311 310 310 311 309 304 310 311 310 310 305 305 306 308 301 304 303 309 316 318 317 324 325 326 325 325 324 324 323 320 321 321 320 322 323 323 324 325 325 323 324 322 320
315 314 312 310 310 311 310 307 306 310 309 311 307 304 308 311 305 312 311 305 313 318 319 318 321 326 322 323 323 322 323 324 324 321 320 322 323 323 323 325 324 325 326 326 325
312 315 314 312 310 310 310 308 305 310 311 311 310 305 309 311 307 306 316 314 307 316 320 320 321 323 324 323 322 322 323 324 324 323 323 323 323 323 324 325 324 324 325 325 326
311 313 315 314 312 310 310 309 305 309 310 311 311 305 311 307 304 305 318 314 310 314 319 321 321 321 323 320 322 322 324 322 322 323 322 322 322 320 325 325 324 323 323 323 324
312 312 314 314 313 310 310 309 305 306 307 311 311 307 309 308 307 307 311 315 316 316 321 320 322 323 323 321 321 322 322 322 320 322 323 322 324 319 322 322 322 322 321 321 322
310 312 313 314 314 311 310 309 306 306 308 312 310 308 309 306 306 310 310 313 319 317 321 319 320 320 321 321 321 321 319 321 320 321 321 320 322 319 321 320 319 320 321 322 322
308 312 312 314 314 313 310 309 307 306 311 311 309 308 307 308 304 306 313 312 320 320 320 319 319 317 319 320 318 317 319 318 319 320 320 320 321 319 322 322 321 321 321 321 321
307 309 313 313 314 314 311 309 309 309 310 310 309 307 309 308 307 304 312 314 320 320 318 318 318 318 317 316 316 314 315 316 315 315 320 320 321 321 320 320 320 320 320 322 321
306 308 312 313 314 314 311 309 308 306 307 308 308 308 308 308 309 308 315 316 319 319 315 319 319 315 314 316 316 317 318 316 315 316 317 318 320 319 319 320 320 320 320 320 321
306 308 310 312 313 315 311 310 307 305 305 307 308 308 308 308 310 310 315 314 314 314 316 316 314 314 316 317 317 318 319 317 317 317 318 319 320 319 318 319 320 320 320 320 320
306 307 309 311 312 315 312 310 307 305 306 306 308 308 309 309 310 308 313 312 312 314 315 314 311 313 315 316 316 318 316 317 319 321 322 319 324 318 316 318 318 319 320 320 321
305 307 309 309 312 315 311 310 307 305 307 304 307 307 308 309 308 311 311 312 310 310 312 311 311 312 314 315 315 318 316 318 318 320 319 319 321 317 317 317 318 318 319 320 321
303 307 309 309 310 312 311 309 305 304 305 306 306 308 309 307 309 311 312 311 311 310 311 308 310 310 310 311 313 313 316 315 317 318 319 316 318 316 314 314 315 316 317 318 319
302 302 308 309 310 310 310 306 306 306 302 306 307 308 307 308 309 310 312 312 311 311 309 308 308 310 311 312 311 313 315 312 310 317 315 311 316 315 313 313 314 316 317 318 319
302 304 308 308 310 310 306 305 309 303 304 304 305 307 307 307 308 310 310 311 310 305 308 312 312 310 310 312 313 313 313 312 310 312 313 313 317 315 313 314 316 316 317 318 319
300 305 305 307 307 310 306 310 309 304 302 305 306 308 306 307 306 308 309 311 310 306 307 307 307 308 308 309 310 313 315 312 311 304 312 312 312 312 312 313 314 315 318 319 320
301 300 304 303 308 308 305 309 305 302 304 305 305 306 306 307 305 307 307 307 308 308 305 305 307 306 308 310 310 309 310 312 316 308 312 312 311 313 312 312 312 312 314 316 317
300 301 303 304 307 306 307 308 304 301 305 304 303 303 303 306 304 306 305 303 307 307 306 305 304 308 310 311 310 312 313 313 310 311 314 312 311 306 310 310 311 310 313 314 314
300 300 301 304 305 304 306 305 302 303 303 301 301 299 303 305 304 305 303 302 306 307 309 305 304 307 308 309 308 309 310 311 315 312 313 312 312 310 308 307 308 311 313 312 312
300 300 302 302 305 305 302 303 302 304 303 302 302 302 301 304 304 304 303 303 304 306 307 306 302 302 303 304 307 311 309 310 310 310 312 314 313 309 308 308 312 311 314 314 314
300 300 302 303 303 304 305 304 303 303 302 302 302 301 302 304 303 304 303 304 303 305 307 308 304 304 303 303 305 308 308 311 312 312 311 312 311 311 311 310 311 313 314 314 313
300 301 300 302 303 303 304 303 303 304 302 303 303 303 303 304 304 304 304 305 303 306 306 305 303 302 306 306 308 308 308 308 310 311 312 311 311 311 311 310 310 311 311 311 312
299 300 300 301 302 303 304 304 304 304 304 304 304 303 303 304 304 304 305 305 306 306 307 306 300 303 302 305 306 308 307 307 308 310 310 311 311 310 310 309 309 309 310 310 310
299 300 302 303 303 304 304 303 304 303 301 304 303 303 303 303 304 305 305 306 306 307 307 308 307 307 307 303 305 302 304 305 306 307 308 309 309 308 308 308 308 309 309 310 311